EW9593 Weather Reports


time (UTC)temp
F
wind
direction
speed
knots
gust
knots
rain 1hr
in
rain 24hr
in
rain mn
in
humidity
%
barometer
mb
20190425182012 77 344 2.6 6.1 0.00 0.94 0.00 48 1014.3
20190425181511 77 20 3.5 5.2 0.00 0.94 0.00 48 1014.3
20190425181013 77 349 3.5 6.1 0.00 0.94 0.00 48 1014.3
20190425180512 77 331 4.3 7.8 0.00 0.94 0.00 50 1014.3
20190425180013 77 339 3.5 6.1 0.00 0.95 0.00 48 1014.3
20190425175511 76 3 4.3 7.0 0.00 0.95 0.00 51 1014.3
20190425175012 76 338 2.6 5.2 0.00 0.95 0.00 52 1014.4
20190425174512 75 20 3.5 6.1 0.00 0.95 0.00 52 1014.4
20190425174012 75 336 3.5 6.1 0.00 0.95 0.00 53 1014.4
20190425173511 75 325 1.7 3.5 0.00 0.95 0.00 53 1014.5
20190425173013 75 340 3.5 6.1 0.00 0.95 0.00 53 1014.6
20190425172511 75 327 3.5 6.1 0.00 0.96 0.00 54 1014.5
20190425172012 75 300 4.3 7.0 0.00 0.96 0.00 55 1014.6
20190425171511 74 339 2.6 6.1 0.00 0.97 0.00 54 1014.6
20190425171013 74 20 2.6 6.1 0.00 0.97 0.00 56 1014.6
20190425170512 73 328 2.6 5.2 0.00 1.13 0.00 57 1014.6
20190425170013 73 317 2.6 6.1 0.00 1.30 0.00 56 1014.7
20190425165511 73 320 4.3 7.0 0.00 1.36 0.00 57 1014.7
20190425165031 74 325 3.5 7.0 0.00 1.37 0.00 59 1014.7
20190425164513 74 318 2.6 4.3 0.00 1.38 0.00 58 1014.7
20190425164011 74 336 3.5 6.1 0.00 1.39 0.00 59 1014.6
20190425163512 73 38 1.7 4.3 0.00 1.39 0.00 60 1014.6
20190425163013 72 354 1.7 4.3 0.00 1.43 0.00 61 1014.6
20190425162512 72 329 3.5 6.1 0.00 1.43 0.00 62 1014.6
20190425162012 72 350 1.7 4.3 0.00 1.43 0.00 62 1014.6
20190425161512 71 27 2.6 4.3 0.00 1.43 0.00 62 1014.5
20190425161012 71 331 3.5 6.1 0.00 1.43 0.00 62 1014.5
20190425160512 70 16 2.6 4.3 0.00 1.43 0.00 63 1014.6
20190425160014 70 346 4.3 7.0 0.00 1.44 0.00 64 1014.6
20190425155521 70 318 4.3 6.1 0.00 1.44 0.00 66 1014.6
20190425155013 69 3 2.6 5.2 0.00 1.44 0.00 66 1014.5
20190425154512 69 322 4.3 7.0 0.00 1.44 0.00 66 1014.5
20190425154013 69 321 4.3 7.0 0.00 1.44 0.00 66 1014.5
20190425153512 68 334 3.5 5.2 0.00 1.44 0.00 67 1014.5
20190425153012 68 323 3.5 6.1 0.00 1.44 0.00 68 1014.4
20190425152511 68 357 3.5 6.1 0.00 1.44 0.00 68 1014.4
20190425152013 68 322 6.1 9.6 0.00 1.44 0.00 69 1014.4
20190425151511 68 310 4.3 6.1 0.00 1.44 0.00 71 1014.5
20190425151013 67 356 2.6 4.3 0.00 1.44 0.00 72 1014.5
20190425150511 67 347 1.7 4.3 0.00 1.44 0.00 73 1014.4
20190425150013 66 310 4.3 6.1 0.00 1.44 0.00 72 1014.3
20190425145511 66 315 2.6 6.1 0.00 1.44 0.00 72 1014.2
20190425145012 66 328 4.3 7.0 0.00 1.45 0.00 73 1014.2
20190425144511 66 324 4.3 6.1 0.00 1.45 0.00 74 1014.1
20190425143511 65 344 1.7 3.5 0.00 1.50 0.00 75 1014.1
20190425143012 65 310 2.6 3.5 0.00 1.55 0.00 76 1014.1
20190425142511 64 326 4.3 7.0 0.00 1.69 0.00 76 1014.1
20190425142013 64 294 3.5 6.1 0.00 1.76 0.00 79 1014.0
20190425141510 64 293 2.6 5.2 0.00 1.76 0.00 81 1014.1
20190425141012 64 323 2.6 3.5 0.00 1.76 0.00 82 1014.0
20190425140512 63 303 2.6 3.5 0.00 1.76 0.00 84 1014.0
20190425140013 63 296 1.7 3.5 0.00 1.76 0.00 85 1013.9
20190425135511 62 289 1.7 3.5 0.00 1.76 0.00 86 1013.9
20190425135013 62 296 2.6 4.3 0.00 1.76 0.00 88 1013.9
20190425134511 62 310 2.6 4.3 0.00 1.76 0.00 90 1013.9
20190425134012 61 283 1.7 2.6 0.00 1.76 0.00 92 1014.0
20190425133510 61 270 1.7 2.6 0.00 1.76 0.00 94 1014.1
20190425133013 61 270 0.9 1.7 0.00 1.76 0.00 96 1014.0
20190425132511 61 337 0.0 0.0 0.00 1.76 0.00 95 1014.0
20190425132012 60 337 0.0 0.0 0.00 1.76 0.00 95 1014.1
20190425131511 59 337 0.0 0.0 0.00 1.76 0.00 93 1014.1
20190425131014 58 337 0.9 1.7 0.00 1.76 0.00 92 1014.1
20190425130511 58 337 1.7 2.6 0.00 1.76 0.00 92 1014.2
20190425130020 57 326 1.7 3.5 0.00 1.76 0.00 93 1014.1
20190425125510 57 292 1.7 2.6 0.00 1.76 0.00 94 1014.1
20190425125014 56 315 0.9 1.7 0.00 1.76 0.00 94 1014.0
20190425124511 56 310 1.7 2.6 0.00 1.76 0.00 95 1014.0
20190425124012 55 321 1.7 3.5 0.00 1.76 0.00 96 1013.9
20190425123510 54 270 0.9 1.7 0.00 1.77 0.00 95 1013.9
20190425123014 54 270 0.9 0.9 0.00 1.77 0.00 95 1013.8
20190425122512 54 270 0.0 0.9 0.00 1.77 0.00 94 1013.7
20190425122012 54 270 1.7 1.7 0.00 1.77 0.00 95 1013.7
20190425121511 54 286 0.9 1.7 0.00 1.78 0.00 95 1013.5
20190425121012 55 295 1.7 2.6 0.00 1.78 0.00 94 1013.5
20190425120511 54 310 1.7 2.6 0.00 1.78 0.00 94 1013.5
20190425120012 54 305 1.7 3.5 0.00 1.78 0.00 94 1013.5
20190425115511 54 311 2.6 4.3 0.00 1.78 0.00 94 1013.4
20190425115012 54 315 1.7 3.5 0.00 1.79 0.00 94 1013.4
20190425114511 54 315 1.7 2.6 0.00 1.79 0.00 92 1013.3
20190425114012 55 315 1.7 2.6 0.00 1.79 0.00 92 1013.3
20190425113510 55 315 1.7 2.6 0.00 1.79 0.00 91 1013.2
20190425113013 55 315 1.7 2.6 0.00 1.79 0.00 92 1013.1
20190425112510 55 285 1.7 2.6 0.00 1.79 0.00 90 1013.1
20190425112012 55 315 0.9 1.7 0.00 1.79 0.00 90 1013.1
20190425111510 55 315 1.7 2.6 0.00 1.79 0.00 91 1012.9
20190425111012 55 315 1.7 2.6 0.00 1.79 0.00 90 1012.8
20190425110511 55 315 1.7 1.7 0.00 1.79 0.00 91 1012.7
20190425110013 55 315 1.7 2.6 0.00 1.79 0.00 93 1012.7
20190425105512 54 292 1.7 3.5 0.00 1.79 0.00 94 1012.7
20190425105013 54 304 1.7 2.6 0.00 1.79 0.00 95 1012.6
20190425104510 54 308 0.9 1.7 0.00 1.80 0.00 94 1012.6
20190425104014 54 292 0.9 1.7 0.00 1.80 0.00 95 1012.6
20190425103511 54 292 0.0 0.0 0.00 1.80 0.00 95 1012.5
20190425103013 54 292 0.0 0.9 0.00 1.80 0.00 95 1012.4
20190425102512 54 292 0.9 1.7 0.00 1.80 0.00 96 1012.4
20190425102012 54 292 0.9 1.7 0.00 1.80 0.00 96 1012.3
20190425101511 54 292 1.7 1.7 0.00 1.80 0.00 96 1012.2
20190425101012 54 292 1.7 2.6 0.00 1.80 0.00 95 1012.3
20190425100512 54 315 0.9 1.7 0.00 1.80 0.00 95 1012.2
20190425100013 54 315 0.9 0.9 0.00 1.80 0.00 94 1012.2
20190425095511 55 315 0.0 0.0 0.00 1.80 0.00 94 1012.2
20190425095012 55 315 0.0 0.0 0.00 1.80 0.00 93 1012.2
20190425094510 56 315 0.9 1.7 0.00 1.81 0.00 93 1012.3
20190425094013 56 315 0.9 1.7 0.00 1.81 0.00 94 1012.3
20190425093511 56 292 1.7 2.6 0.00 1.82 0.00 93 1012.4
20190425093014 56 292 1.7 2.6 0.00 1.82 0.00 94 1012.4
20190425092514 56 315 1.7 2.6 0.00 1.83 0.00 94 1012.5
20190425092013 56 294 2.6 3.5 0.00 1.83 0.00 95 1012.4
20190425091011 56 315 1.7 3.5 0.00 1.83 0.00 96 1012.3
20190425090511 56 315 1.7 3.5 0.00 1.83 0.00 96 1012.4
20190425090012 56 313 1.7 1.7 0.00 1.83 0.00 96 1012.3
20190425085510 56 315 1.7 2.6 0.00 1.83 0.00 97 1012.3
20190425085012 56 292 1.7 2.6 0.00 1.83 0.00 96 1012.3
20190425084511 56 315 1.7 2.6 0.00 1.83 0.00 96 1012.3
20190425084011 55 315 1.7 2.6 0.00 1.83 0.00 98 1012.2
20190425083511 55 315 1.7 2.6 0.00 1.83 0.00 98 1012.2
20190425083012 55 270 0.9 1.7 0.00 1.83 0.00 98 1012.1
20190425082511 55 270 0.9 1.7 0.00 1.83 0.00 98 1012.1
20190425082013 55 270 2.6 3.5 0.00 1.83 0.00 98 1012.2
20190425081511 55 270 2.6 3.5 0.00 1.83 0.00 97 1012.1
20190425081012 56 292 0.0 0.9 0.00 1.83 0.00 98 1012.2
20190425080512 56 292 0.0 0.0 0.00 1.83 0.00 97 1012.3
20190425080013 56 292 0.9 1.7 0.00 1.83 0.00 97 1012.4
20190425075510 56 270 0.0 0.9 0.00 1.83 0.00 98 1012.5
20190425075012 56 270 1.7 2.6 0.00 1.83 0.00 98 1012.6
20190425074510 56 280 2.6 3.5 0.00 1.84 0.00 97 1012.7
20190425074011 56 289 2.6 4.3 0.00 1.84 0.00 98 1013.1
20190425073511 56 312 2.6 4.3 0.00 1.84 0.00 99 1013.0
20190425073013 56 294 2.6 4.3 0.00 1.84 0.00 98 1013.1
20190425072510 55 302 1.7 3.5 0.00 1.84 0.00 99 1013.1
20190425072012 55 303 1.7 2.6 0.00 1.84 0.00 99 1013.2
20190425071511 55 315 1.7 2.6 0.00 1.84 0.00 100 1013.3
20190425071012 55 292 1.7 1.7 0.00 1.84 0.00 99 1013.3
20190425070511 55 292 1.7 1.7 0.00 1.84 0.00 100 1013.4
20190425070012 55 292 0.9 1.7 0.00 1.84 0.00 99 1013.4
20190425065511 55 292 1.7 1.7 0.00 1.84 0.00 98 1013.5
20190425065011 55 292 1.7 1.7 0.00 1.84 0.00 99 1013.4
20190425064511 56 292 1.7 1.7 0.00 1.84 0.00 100 1013.4
20190425064012 56 292 1.7 1.7 0.00 1.84 0.00 100 1013.5
20190425063511 56 292 1.7 1.7 0.00 1.84 0.00 99 1013.5
20190425063012 56 292 1.7 1.7 0.00 1.84 0.00 99 1013.6
20190425062510 56 292 1.7 1.7 0.00 1.84 0.00 99 1013.7
20190425062012 57 292 0.9 1.7 0.00 1.84 0.00 98 1013.8
20190425061511 57 315 0.9 1.7 0.00 1.84 0.00 99 1013.8
20190425061012 57 315 0.9 1.7 0.00 1.84 0.00 99 1013.8
20190425060511 57 315 1.7 1.7 0.00 1.84 0.00 100 1013.7
20190425060012 57 292 0.9 2.6 0.00 1.84 0.00 100 1013.7
20190425055510 57 315 1.7 2.6 0.00 1.84 0.00 100 1013.6
20190425055012 57 324 2.6 3.5 0.00 1.84 0.00 100 1013.6
20190425054510 57 320 3.5 4.3 0.00 1.84 0.00 100 1013.6
20190425054012 57 333 3.5 5.2 0.00 1.84 0.00 100 1013.8
20190425053511 57 316 1.7 3.5 0.00 1.84 0.00 99 1013.9
20190425053012 57 292 1.7 1.7 0.00 1.84 0.00 99 1014.0
20190425052514 57 292 1.7 2.6 0.00 1.84 0.00 100 1014.0
20190425052012 57 292 1.7 1.7 0.00 1.84 0.00 100 1013.9
20190425051510 57 292 1.7 2.6 0.00 1.84 0.00 100 1013.8
20190425051012 57 315 0.0 0.9 0.00 1.84 0.00 100 1013.8
20190425050510 57 337 0.0 0.0 0.00 1.84 0.00 99 1013.8
20190425050018 57 337 0.0 0.0 0.00 1.84 0.00 100 1013.9
20190425045510 57 337 0.0 0.0 0.00 1.84 1.84 100 1013.8
20190425045012 57 315 0.0 0.9 0.00 1.84 1.84 99 1013.8
20190425044510 57 315 0.9 1.7 0.00 1.84 1.84 100 1013.8
20190425044012 57 315 0.9 1.7 0.00 1.84 1.84 100 1013.8
20190425043511 57 337 0.0 0.9 0.00 1.84 1.84 99 1014.0
20190425043012 57 337 0.0 0.0 0.00 1.84 1.84 99 1014.0
20190425042510 57 337 0.0 0.9 0.00 1.84 1.84 99 1014.0
20190425042012 57 360 0.0 1.7 0.00 1.84 1.84 99 1014.1
20190425041511 57 337 1.7 1.7 0.00 1.84 1.84 99 1014.1
20190425041011 57 336 0.9 2.6 0.00 1.84 1.84 100 1014.1
20190425040520 57 360 0.9 1.7 0.00 1.84 1.84 99 1014.2
20190425040009 57 360 0.0 0.0 0.00 1.84 1.84 99 1014.2
20190425035511 57 67 0.0 0.0 0.00 1.84 1.84 100 1014.2
20190425035013 57 67 0.0 0.0 0.00 1.84 1.84 100 1014.2
20190425034512 57 67 0.0 0.9 0.00 1.84 1.84 99 1014.1
20190425034012 57 67 0.0 0.0 0.00 1.84 1.84 100 1014.2
20190425033511 57 67 0.0 0.9 0.00 1.84 1.84 99 1014.1
20190425033013 57 360 0.0 0.0 0.00 1.84 1.84 100 1014.2
20190425032510 58 45 0.0 0.0 0.00 1.84 1.84 100 1014.0
20190425032014 58 360 0.0 0.9 0.00 1.84 1.84 99 1014.1
20190425031510 58 22 0.0 0.0 0.00 1.84 1.84 99 1014.1
20190425031013 58 337 0.0 0.9 0.00 1.84 1.84 99 1014.1
20190425030511 57 315 0.0 0.9 0.00 1.84 1.84 99 1013.9
20190425030014 57 360 0.0 0.9 0.00 1.84 1.84 99 1013.7
20190425025512 58 360 0.0 0.0 0.00 1.84 1.84 98 1013.6
20190425025012 58 16 0.0 0.9 0.00 1.84 1.84 99 1013.4
20190425024510 58 45 0.9 1.7 0.00 1.84 1.84 99 1013.1
20190425024013 58 45 0.9 2.6 0.00 1.84 1.84 99 1013.0
20190425023511 58 14 0.9 2.6 0.00 1.84 1.84 99 1013.0
20190425023014 58 72 1.7 3.5 0.00 1.84 1.84 99 1013.0
20190425022511 58 45 0.9 2.6 0.00 1.84 1.84 98 1013.2
20190425022013 58 45 1.7 3.5 0.00 1.84 1.84 99 1013.3
20190425021510 58 45 0.9 2.6 0.00 1.84 1.84 99 1013.2
20190425021012 58 22 0.9 1.7 0.00 1.84 1.84 98 1013.2
20190425020511 58 37 1.7 3.5 0.00 1.84 1.84 98 1012.8
20190425020012 58 90 2.6 3.5 0.00 1.84 1.84 98 1012.7
20190425015511 58 74 1.7 2.6 0.00 1.84 1.84 98 1012.7
20190425015012 58 45 0.9 1.7 0.00 1.84 1.84 98 1012.5
20190425014511 58 22 0.9 1.7 0.00 1.84 1.84 98 1012.4
20190425014012 59 45 0.9 1.7 0.00 1.84 1.84 98 1012.4
20190425013510 59 47 0.9 1.7 0.00 1.84 1.84 98 1012.4
20190425013011 59 49 0.9 1.7 0.00 1.84 1.84 97 1012.3
20190425012510 59 67 0.9 1.7 0.00 1.84 1.84 97 1012.2
20190425012012 59 67 0.0 0.9 0.00 1.84 1.84 97 1012.0
20190425011510 59 90 1.7 3.5 0.00 1.84 1.84 97 1011.9
20190425011012 60 90 1.7 2.6 0.00 1.84 1.84 96 1011.9
20190425010511 60 90 0.9 1.7 0.00 1.84 1.84 96 1011.9
20190425010012 60 86 0.9 1.7 0.00 1.84 1.84 96 1011.5
20190425005510 60 67 0.9 1.7 0.00 1.84 1.84 96 1011.4
20190425005012 61 66 1.7 2.6 0.00 1.84 1.84 96 1011.4
20190425004511 61 61 0.9 1.7 0.00 1.84 1.84 96 1011.4
20190425004012 61 45 1.7 2.6 0.00 1.84 1.84 96 1011.3
20190425003511 61 45 1.7 3.5 0.00 1.84 1.84 95 1011.3
20190425003013 61 28 1.7 3.5 0.00 1.84 1.84 95 1011.3
20190425002511 61 1 0.9 2.6 0.00 1.84 1.84 96 1011.2
20190425002012 61 11 1.7 3.5 0.00 1.84 1.84 96 1011.2
20190425001511 61 40 1.7 4.3 0.00 1.84 1.84 96 1011.1
20190425001012 61 57 1.7 4.3 0.00 1.84 1.84 97 1011.1
20190425000512 60 49 2.6 6.1 0.00 1.84 1.84 96 1011.2
20190425000013 60 35 1.7 4.3 0.00 1.84 1.84 96 1011.3
20190424235511 60 49 1.7 4.3 0.00 1.84 1.84 96 1011.3
20190424235013 60 30 0.9 3.5 0.00 1.84 1.84 96 1011.2
20190424234510 60 29 2.6 5.2 0.01 1.85 1.84 95 1011.2
20190424234012 60 35 2.6 6.1 0.01 1.85 1.84 96 1011.3
20190424233510 61 12 4.3 8.7 0.01 1.85 1.84 96 1011.2
20190424233013 61 41 2.6 6.1 0.01 1.85 1.84 97 1011.4
20190424232012 60 356 3.5 7.0 0.04 1.85 1.84 99 1011.4
20190424231511 60 354 3.5 7.8 0.06 1.85 1.84 99 1011.4
20190424231012 60 29 2.6 5.2 0.07 1.85 1.84 99 1011.4
20190424230511 60 8 3.5 7.0 0.08 1.85 1.84 99 1011.5
20190424225520 59 44 3.5 6.1 0.10 1.85 1.84 99 1011.3
20190424225015 59 10 4.3 7.8 0.11 1.85 1.84 99 1011.6
20190424224511 59 351 4.3 7.8 0.10 1.84 1.83 99 1011.5
20190424224013 59 347 4.3 7.8 0.11 1.84 1.83 99 1011.5
20190424223511 59 342 3.5 6.1 0.12 1.84 1.83 99 1011.5
20190424223012 59 353 5.2 8.7 0.14 1.84 1.83 99 1011.4
20190424222511 59 13 2.6 6.1 0.16 1.82 1.81 99 1011.7
20190424222013 59 352 2.6 6.1 0.18 1.80 1.79 99 1012.0
20190424221511 59 19 3.5 7.0 0.19 1.79 1.78 99 1011.8
20190424221012 59 7 4.3 7.0 0.19 1.78 1.77 99 1012.0
20190424220511 59 342 5.2 11.3 0.18 1.76 1.75 99 1011.8
20190424220013 59 347 4.3 7.8 0.19 1.75 1.74 99 1011.6
20190424215511 59 358 3.5 7.0 0.20 1.75 1.74 99 1011.7
20190424215013 59 351 3.5 6.1 0.20 1.74 1.73 99 1011.8
20190424214511 59 353 3.5 7.8 0.20 1.74 1.73 98 1011.7
20190424214012 59 21 3.5 7.0 0.19 1.73 1.72 99 1011.7
20190424213511 59 326 5.2 9.6 0.19 1.71 1.70 99 1011.7
20190424213012 59 321 5.2 9.6 0.17 1.69 1.67 99 1011.6
20190424212511 59 343 4.3 7.8 0.15 1.65 1.63 99 1011.3
20190424212012 59 341 3.5 7.0 0.17 1.62 1.61 99 1011.2
20190424211510 58 351 3.5 7.8 0.37 1.60 1.59 99 1011.1
20190424211011 58 335 5.2 10.4 0.45 1.59 1.58 99 1011.0
20190424210511 58 341 4.3 7.8 0.50 1.58 1.56 99 1010.9
20190424210013 58 358 4.3 7.8 0.56 1.55 1.54 98 1011.6
20190424205510 58 360 4.3 8.7 0.56 1.55 1.54 99 1011.7
20190424205011 58 331 5.2 9.6 0.56 1.54 1.53 99 1011.9
20190424204511 58 336 4.3 7.8 0.56 1.54 1.53 99 1011.9
20190424204012 58 336 4.3 7.8 0.59 1.54 1.52 99 1011.7
20190424203511 58 320 5.2 8.7 0.57 1.52 1.51 99 1011.9
20190424203012 58 334 6.1 10.4 0.59 1.52 1.50 98 1011.9
20190424202511 58 326 7.8 12.2 0.56 1.50 1.48 97 1012.6
20190424202013 58 73 4.3 7.8 0.49 1.41 1.36 98 1012.6
20190424201511 58 281 8.7 13.9 0.25 1.17 1.15 98 1012.4
20190424201012 59 334 8.7 18.2 0.22 1.13 1.12 99 1011.0
20190424200511 60 339 7.0 10.4 0.14 1.06 1.03 99 1011.7
20190424200013 60 324 6.1 10.4 0.07 0.99 0.97 99 1011.8
20190424195510 60 333 4.3 6.1 0.06 0.98 0.97 99 1011.3
20190424195012 60 315 2.6 3.5 0.05 0.97 0.96 98 1011.0
20190424194511 60 106 0.9 2.6 0.05 0.97 0.95 98 1010.5
20190424194012 59 99 2.6 4.3 0.04 0.95 0.94 97 1010.3
20190424193511 59 108 3.5 6.1 0.03 0.94 0.93 98 1010.3
20190424193014 59 97 2.6 5.2 0.02 0.93 0.92 98 1010.5
20190424192511 60 116 2.6 5.2 0.02 0.93 0.91 98 1010.5
20190424192013 60 83 2.6 4.3 0.01 0.92 0.91 98 1010.6
20190424191512 60 92 3.5 6.1 0.01 0.92 0.91 98 1010.9
20190424191013 60 108 3.5 6.1 0.01 0.92 0.91 98 1010.9
20190424190512 60 126 3.5 7.0 0.01 0.92 0.91 98 1010.9
20190424190013 59 110 3.5 6.1 0.02 0.92 0.91 98 1011.0
20190424185510 59 116 3.5 6.1 0.02 0.92 0.91 98 1011.1
20190424185012 59 105 3.5 6.1 0.02 0.92 0.91 98 1011.4
20190424184511 59 113 3.5 5.2 0.02 0.92 0.90 97 1011.7
20190424184013 59 133 2.6 5.2 0.01 0.91 0.90 97 1011.9
20190424183512 59 121 1.7 5.2 0.01 0.91 0.90 98 1011.8
20190424183013 59 83 4.3 7.0 0.01 0.91 0.90 98 1011.7
20190424182512 59 67 2.6 3.5 0.02 0.91 0.90 98 1012.1